Wind_Speed
44 49 48 50 50 63 65 70 75 73 69 66 67 65 64 67 70 72 73 75 79 82 85 87 87 87 87 79 72 68 66 62 58 55 52 48 45 44
46 59 61 49 62 64 71 69 70 70 69 67 66 66 69 70 72 74 77 81 83 88 90 88 86 87 83 70 66 63 59 53 51 49 45 42 41 40
48 61 59 56 63 62 64 66 68 69 68 66 66 68 70 72 75 77 80 85 90 92 91 87 86 81 72 65 60 55 52 50 47 43 39 38 39 38
48 49 55 59 61 64 66 67 66 68 68 68 69 71 73 77 79 82 85 89 91 89 88 87 83 74 65 55 52 50 49 45 42 37 35 36 37 37
50 54 58 62 64 66 65 66 68 69 70 71 72 74 76 79 82 85 87 90 90 85 84 81 74 68 56 49 47 47 46 43 37 34 34 35 35 36
56 60 61 63 64 64 65 67 68 69 71 72 73 75 78 81 84 86 87 87 86 82 80 76 68 60 48 47 44 43 40 38 34 32 32 33 35 35
59 59 63 64 64 65 67 68 69 70 72 74 76 79 81 83 86 89 91 89 85 79 76 70 62 52 46 45 43 39 36 31 31 32 31 32 34 34
61 63 65 64 64 67 69 70 72 73 75 78 80 83 85 88 88 89 88 85 82 73 69 61 53 46 41 39 38 36 32 30 30 30 30 31 33 32
65 66 65 66 67 68 67 69 73 76 79 82 83 86 89 89 88 86 80 80 74 67 62 53 47 40 39 36 35 32 30 29 28 28 29 30 30 29
66 66 66 67 68 68 69 71 74 77 81 85 88 90 90 87 85 82 78 74 66 60 56 49 39 37 35 35 32 30 29 28 27 27 28 29 29 29
67 66 66 68 69 70 71 73 75 78 83 87 91 91 89 86 82 77 73 67 60 52 50 47 38 35 33 33 30 30 28 26 26 26 27 28 28 28
67 66 68 70 71 73 76 78 80 82 86 89 90 89 86 83 79 76 68 60 56 49 42 44 39 36 29 30 29 29 27 26 26 25 26 27 27 27
67 69 71 73 75 78 81 83 85 88 91 93 92 88 84 80 75 69 61 56 53 46 41 41 36 36 32 26 27 29 27 25 26 25 26 25 26 27
71 73 75 77 80 82 83 87 91 94 94 93 90 84 80 75 71 63 57 55 49 41 37 37 34 35 32 25 24 26 25 25 24 24 24 24 26 25
75 77 79 82 83 84 88 93 96 94 92 89 84 80 76 71 64 61 57 51 43 37 32 32 35 34 29 24 22 23 23 24 24 22 22 23 24 22
80 81 83 84 85 89 94 95 94 91 87 84 79 75 72 66 62 60 53 45 38 33 31 32 32 30 25 23 21 21 22 21 23 22 21 22 21 20
81 83 85 87 91 94 95 93 89 86 82 79 76 72 68 66 60 55 48 39 32 31 32 32 31 27 23 22 21 21 22 22 21 21 20 20 20 20
83 86 90 93 96 96 92 89 86 82 78 75 72 69 65 59 52 44 44 38 34 33 31 30 28 24 22 21 21 20 21 19 20 19 18 19 20 18
89 93 95 96 95 91 89 86 82 78 75 72 69 65 60 52 44 39 45 41 33 32 28 26 25 22 20 19 23 20 19 18 19 18 18 18 19 17
94 96 95 93 91 89 86 82 78 75 73 70 66 60 51 42 39 37 37 40 39 29 30 26 24 22 18 20 20 20 17 17 15 16 17 16 16 16
96 94 93 91 88 85 81 79 77 74 70 65 59 51 44 38 37 36 42 45 42 37 29 25 24 20 19 18 19 18 15 15 14 15 16 15 14 13
96 93 89 85 82 81 81 78 75 70 64 57 50 43 39 36 34 33 36 39 38 29 26 23 21 20 18 18 18 17 15 14 13 14 14 14 13 13
88 85 83 83 82 81 79 75 69 62 54 48 42 38 34 32 30 29 30 27 25 25 21 19 19 19 19 17 17 16 15 14 12 12 12 12 12 11
Wind_Direction
304 294 289 291 298 305 293 288 293 307 310 311 311 312 312 312 313 314 314 314 314 314 314 313 310 307 304 303 298 294 291 287 285 281 279 276 272 269
303 298 298 285 299 301 304 304 305 306 306 308 309 308 309 311 313 314 315 315 315 315 315 313 309 307 305 302 296 295 294 291 284 278 275 272 270 267
300 296 291 289 299 299 303 304 306 306 306 309 308 308 310 311 312 314 314 315 316 316 315 312 310 307 304 299 296 295 294 289 282 276 272 271 269 268
299 297 296 299 303 305 305 305 304 307 309 309 308 310 312 312 313 315 315 315 315 314 312 311 308 306 302 295 293 293 291 285 280 274 273 270 268 267
302 302 303 304 305 305 305 306 309 308 307 309 311 311 312 314 314 314 314 315 316 312 311 308 306 304 299 293 290 289 286 282 277 271 272 273 271 272
304 304 304 306 306 306 307 308 307 306 307 309 310 311 314 314 313 313 314 314 315 312 310 307 305 302 299 293 290 285 281 279 275 272 272 274 274 273
303 304 306 304 304 307 307 307 305 306 307 309 311 311 312 312 313 313 314 315 315 312 309 306 303 300 297 295 291 287 283 276 273 274 275 276 277 279
304 304 303 304 306 307 307 307 306 307 308 309 309 311 313 313 313 313 313 313 316 309 305 303 299 296 294 292 287 284 278 271 271 273 274 273 273 274
302 302 303 304 303 305 305 306 306 307 308 309 311 313 313 313 313 313 312 313 313 306 304 300 296 294 294 294 287 281 274 271 272 274 275 273 274 276
300 301 302 302 303 304 305 306 306 307 308 311 312 313 313 313 312 312 311 312 309 305 300 300 291 294 295 293 283 274 268 271 275 276 274 276 279 279
299 300 300 303 302 303 303 305 305 306 308 310 311 312 312 312 311 310 311 309 307 304 296 296 290 293 292 290 279 273 269 272 276 275 275 278 280 282
297 297 300 302 301 302 303 304 305 307 308 309 310 311 311 310 309 309 310 308 306 302 287 288 289 291 286 288 274 268 267 272 276 275 276 280 281 284
298 300 302 302 303 304 304 306 307 307 308 309 310 310 308 307 307 308 307 306 303 296 284 285 287 291 292 280 264 265 266 271 276 278 279 280 281 284
299 301 303 303 303 303 304 306 307 309 309 309 309 308 307 306 307 306 305 305 299 289 278 281 289 293 293 276 259 256 265 272 276 277 280 279 282 281
298 300 301 301 302 303 305 306 308 308 309 308 308 307 306 307 306 306 305 302 293 282 278 282 289 290 286 270 253 258 264 274 276 280 279 279 283 275
298 299 300 301 303 304 305 306 307 307 307 306 306 306 306 306 305 304 302 297 287 279 278 281 286 285 279 264 253 256 264 267 277 282 279 283 276 269
298 299 300 302 303 303 305 306 306 306 305 305 305 305 305 305 303 299 298 292 285 281 280 283 282 280 270 256 251 256 262 269 275 277 279 283 275 274
299 300 300 301 302 303 305 304 305 304 304 304 303 303 302 302 297 288 291 288 283 282 281 275 273 272 261 251 253 259 266 268 277 278 280 277 272 279
299 299 300 302 304 304 304 304 304 304 303 302 301 300 300 296 286 273 269 276 278 280 275 274 271 266 249 235 251 256 265 270 270 272 282 274 277 284
298 301 303 303 304 304 304 304 304 304 302 301 300 299 296 287 276 265 248 264 272 271 276 274 265 257 242 238 248 256 257 266 268 272 279 272 278 285
301 302 304 304 304 304 304 304 304 303 301 299 298 296 290 280 271 261 248 260 263 271 268 263 254 248 239 237 245 254 256 262 266 274 284 274 277 282
303 303 303 303 303 304 304 303 303 301 299 297 295 290 284 276 267 257 251 251 254 251 254 255 244 235 231 233 242 251 258 260 263 273 280 269 275 284
302 302 303 303 303 303 303 302 300 298 296 293 290 286 279 271 263 256 250 234 235 235 245 247 239 226 229 232 242 248 255 256 261 270 284 264 266 278
Height
5704 5700 5694 5689 5684 5681 5676 5670 5665 5662 5657 5648 5639 5627 5619 5612 5603 5595 5588 5581 5571 5561 5551 5541 5527 5513 5502 5490 5478 5469 5462 5457 5453 5449 5448 5447 5445 5445
5693 5687 5683 5678 5674 5667 5660 5654 5649 5645 5644 5634 5624 5615 5606 5597 5588 5579 5569 5559 5551 5539 5528 5517 5504 5489 5476 5465 5456 5449 5442 5439 5435 5433 5432 5431 5431 5431
5682 5677 5671 5668 5663 5657 5649 5642 5635 5628 5625 5620 5610 5599 5591 5580 5572 5562 5552 5539 5525 5513 5503 5491 5479 5467 5456 5445 5438 5431 5427 5423 5420 5419 5418 5418 5417 5418
5671 5667 5662 5656 5649 5641 5635 5628 5621 5612 5605 5603 5594 5584 5573 5562 5553 5542 5532 5519 5506 5493 5479 5466 5455 5446 5436 5428 5422 5416 5412 5408 5406 5406 5405 5405 5404 5405
5659 5654 5648 5641 5635 5628 5620 5612 5603 5595 5588 5583 5577 5567 5556 5544 5534 5524 5515 5502 5489 5474 5463 5448 5437 5428 5420 5414 5409 5403 5398 5395 5395 5394 5393 5393 5393 5393
5645 5640 5633 5626 5620 5612 5604 5595 5587 5580 5571 5564 5558 5550 5539 5528 5513 5502 5496 5481 5470 5454 5441 5427 5418 5409 5403 5398 5394 5391 5388 5385 5384 5383 5382 5382 5381 5381
5632 5625 5618 5610 5603 5596 5588 5581 5572 5564 5555 5547 5540 5531 5524 5513 5497 5484 5468 5458 5450 5432 5422 5411 5403 5394 5389 5384 5380 5378 5376 5374 5373 5372 5372 5372 5371 5370
5616 5608 5601 5594 5587 5580 5572 5563 5554 5545 5538 5529 5522 5511 5503 5490 5477 5462 5448 5437 5429 5416 5403 5394 5387 5381 5377 5373 5369 5367 5365 5364 5364 5364 5363 5362 5361 5360
5600 5594 5586 5579 5571 5565 5557 5548 5539 5527 5516 5508 5502 5491 5480 5466 5456 5443 5430 5417 5408 5396 5387 5382 5373 5370 5365 5362 5358 5357 5355 5355 5355 5354 5353 5352 5351 5350
5584 5577 5571 5563 5555 5549 5543 5535 5526 5513 5500 5489 5477 5470 5457 5446 5433 5421 5411 5400 5392 5381 5369 5369 5362 5359 5355 5352 5348 5347 5346 5346 5346 5345 5344 5343 5341 5340
5568 5561 5553 5546 5537 5530 5525 5518 5510 5498 5486 5473 5460 5447 5436 5425 5413 5403 5394 5381 5376 5369 5356 5353 5352 5348 5346 5343 5339 5337 5337 5337 5337 5337 5335 5334 5332 5331
5552 5544 5536 5528 5519 5511 5503 5496 5490 5480 5470 5459 5446 5432 5417 5407 5396 5386 5376 5366 5358 5355 5347 5341 5340 5337 5337 5333 5330 5329 5329 5329 5329 5328 5327 5325 5323 5323
5536 5527 5518 5510 5501 5491 5481 5472 5464 5458 5449 5436 5426 5414 5401 5390 5380 5370 5361 5353 5346 5342 5335 5330 5329 5326 5323 5323 5322 5319 5320 5321 5320 5320 5318 5316 5315 5314
5519 5510 5501 5492 5482 5472 5462 5452 5441 5429 5420 5411 5401 5391 5380 5370 5361 5353 5346 5338 5331 5328 5323 5319 5317 5314 5312 5313 5313 5312 5312 5312 5312 5311 5310 5309 5307 5306
5500 5491 5483 5475 5465 5453 5442 5430 5419 5407 5396 5386 5376 5367 5358 5349 5343 5336 5329 5323 5318 5315 5312 5309 5307 5304 5303 5303 5304 5304 5305 5304 5304 5303 5302 5301 5299 5298
5480 5470 5461 5453 5444 5433 5421 5409 5397 5385 5374 5364 5355 5345 5337 5331 5324 5317 5312 5308 5305 5304 5302 5300 5297 5295 5294 5294 5296 5297 5297 5298 5296 5295 5295 5293 5291 5291
5459 5448 5439 5431 5421 5410 5398 5386 5375 5363 5353 5342 5333 5325 5317 5310 5305 5299 5296 5294 5293 5292 5291 5289 5287 5286 5286 5287 5288 5289 5290 5290 5290 5288 5288 5286 5284 5284
5436 5427 5417 5407 5397 5387 5377 5365 5353 5342 5332 5323 5315 5307 5301 5294 5288 5283 5281 5281 5282 5282 5281 5279 5278 5278 5279 5280 5280 5282 5282 5283 5282 5281 5281 5279 5277 5278
5412 5401 5391 5380 5370 5360 5349 5339 5329 5319 5310 5302 5294 5288 5282 5277 5273 5270 5270 5269 5269 5270 5270 5269 5269 5269 5271 5273 5272 5275 5276 5276 5275 5275 5273 5272 5272 5272
5385 5373 5362 5352 5342 5332 5322 5313 5304 5295 5287 5280 5273 5267 5263 5260 5257 5256 5256 5256 5258 5260 5260 5261 5261 5261 5264 5265 5266 5268 5269 5269 5269 5268 5267 5267 5267 5266
5361 5348 5336 5325 5315 5305 5296 5288 5280 5272 5264 5257 5252 5248 5245 5243 5242 5242 5244 5244 5247 5249 5251 5252 5252 5254 5256 5259 5260 5261 5263 5263 5263 5262 5262 5261 5261 5261
5332 5321 5309 5299 5290 5281 5272 5263 5256 5248 5241 5237 5233 5230 5227 5226 5227 5228 5230 5233 5236 5239 5242 5243 5245 5247 5250 5252 5254 5255 5257 5257 5257 5257 5257 5257 5257 5256
5304 5294 5284 5274 5265 5256 5248 5240 5232 5226 5222 5219 5216 5213 5212 5212 5213 5215 5217 5221 5226 5230 5233 5235 5237 5240 5243 5246 5248 5249 5251 5251 5252 5252 5252 5252 5252 5252